Regional Weather Roundup
Issued by NWS

Home | Current Version | Previous Version | Text Only | Print | Product List | Glossary On
Versions: 1 2 3 4 5 6 7 8 9 10 11 12 13 14 15 16 17 18 19 20 21 22 23 24 25 26 27 28 29 30 31 32 33 34 35 36 37 38 39 40 41 42 43 44 45 46 47 48 49 50
000
ASUS44 KEWX 262103
RWRTX
SOUTH TEXAS REGIONAL WEATHER ROUNDUP
NATIONAL WEATHER SERVICE AUSTIN/SAN ANTONIO TX
400 PM CDT WED APR 26 2017

NOTE: "FAIR" INDICATED FEW OR NO CLOUDS BELOW 12,000 FEET WITH NO
SIGNIFICANT WEATHER AND/OR OBSTRUCTIONS TO VISIBILITY.

* - THESE STATIONS ARE NOT NWS OR FAA STATIONS...AND ARE NOT SUBJECT
    TO NWS AND FAA QUALITY CONTROL.

TXZ171-172-183>190-262200-
TEXAS HILL COUNTRY AND EDWARDS PLATEAU

CITY           SKY/WX    TMP DP  RH WIND       PRES   REMARKS
JUNCTION       SUNNY     81  34  18 W21G35    29.72F
*LLANO         SUNNY     82  37  20 NW20G32   29.69S
BURNET         SUNNY     82  36  19 NW22G37   29.67S
*HORSESHOE BAY SUNNY     84  36  17 NW18G29   29.66R
*KERRVILLE     SUNNY     83  31  15 NW18G31   29.69S
*FREDERICKSBRG SUNNY     82  30  15 NW16G28   29.69R
*ROCKSPRINGS   SUNNY     81  36  19 NW20G36   29.75F
*BOERNE STAGE  SUNNY     84  30  14 NW20G30   29.67R
*CASTROVILLE   SUNNY     92  33  12 NW22      29.63S
HONDO          SUNNY     91  33  12 NW31G40   29.63F
*UVALDE        SUNNY     87  42  20 NW16G26   29.65F
DEL RIO        SUNNY     89  33  13 NW24G32   29.64F
LAUGHLIN AFB   MOSUNNY   89  38  16 N21G31    29.65F
CARRIZO SPRGS  SUNNY     91  43  18 N9G18     29.61F
*EAGLE PASS    NOT AVBL
$$

TXZ173-191>194-202-209-217>225-228-262200-
CENTRAL AND SOUTH CENTRAL TEXAS

CITY           SKY/WX    TMP DP  RH WIND       PRES   REMARKS
GEORGETOWN     SUNNY     88  36  15 W25G35    29.61R
AUSTIN/BERGSTM MOSUNNY   90  37  15 NW16G33   29.59R
AUSTIN/MABRY     N/A     88  37  16 W16G29    29.61S
*AUSTIN/EXEC   SUNNY     86  37  17 W20G31    29.60R
*LAGO VISTA    SUNNY     86  31  14 NW21G36   29.64R
SAN MARCOS     SUNNY     90  39  17 NW18G32   29.60R
NEW BRAUNFELS  SUNNY     90  38  16 NW23G33   29.59R
RANDOLPH AFB   SUNNY     90  37  15 W21G29    29.61R
PT SAN ANTONIO SUNNY     91  37  15 NW28G36   29.60S
SAN ANTONIO    MOSUNNY   91  39  16 NW21G29   29.61F
STINSON FIELD  SUNNY     93  36  13 NW20G32   29.58F
*LA GRANGE     SUNNY     91  52  25 NW14G23   29.55R
*GIDDINGS      SUNNY     89  45  21 NW14G24   29.58R
*GONZALES      SUNNY     94  46  19 NW17G25   29.56F HX  90
$$

TXZ163>164-176>182-195>201-210>213-226-227-235-262200-
SOUTHEAST TEXAS

CITY           SKY/WX    TMP DP  RH WIND       PRES   REMARKS
COLLEGE STN    SUNNY     86  59  39 NW23G33   29.55R
*BRYAN         SUNNY     83  62  49 NW21G26   29.57R
*CALDWELL      NOT AVBL
*CROCKETT      PTSUNNY   66  64  94 NW15G24   29.59R
*BRENHAM       SUNNY     92  49  23 NW20G25   29.54S
HUNTSVILLE     MOSUNNY   88  68  51 SW10G20   29.50F HX  91
CONROE         MOSUNNY   87  69  54 SW12      29.52F HX  91
HOUSTON BUSH   PTSUNNY   88  70  55 VRB7      29.52F HX  93
HOUSTON HOBBY  MOSUNNY   86  72  62 SW13      29.52F HX  92
*HOUSTON SW AP MOSUNNY   87  73  64 SW6       29.54F HX  94
PEARLAND       PTSUNNY   87  71  58 S7        29.54F HX  93
HOUSTON HOOKS  MOSUNNY   87  69  54 SW7       29.52F HX  91
ELLINGTON FLD  NOT AVBL
SUGAR LAND     MOSUNNY   89  71  55 SW13      29.52F HX  95
*HOUSTON EXEC  SUNNY     90  72  55 SW10      29.53F HAZE    HX  96
*CLEVELAND MUN MOSUNNY   87  74  64 S8G17     29.53S HX  95
*WHARTON       MOSUNNY   92  59  32 W14       29.54F HX  91
*COLUMBUS      FAIR      91  44  19 NW16G22   29.55S
*EAGLE LAKE    PTCLDY    93  50  23 NW13G24   29.53S HX  90
$$

TXZ214>216-236>238-262200-
THE UPPER TEXAS COAST

CITY           SKY/WX    TMP DP  RH WIND       PRES   REMARKS
*ORANGE        CLOUDY    77  74  91 S15       29.57F FOG
PORT ARTHUR    LGT RAIN  77  74  90 S12       29.55F FOG
GALVESTON      PTSUNNY   83  76  79 S14       29.56F HAZE    HX  91
ANGLETON       CLOUDY    87  75  67 S7        29.54F HX  96
*BAY CITY      PTSUNNY   89  73  60 CALM      29.54S HX  96
PALACIOS       MOSUNNY   84  75  74 S10       29.54S HX  92
$$

TXZ229>234-239>247-262200-
TEXAS COASTAL BEND AND RIO GRANDE PLAINS

CITY           SKY/WX    TMP DP  RH WIND       PRES   REMARKS
VICTORIA       SUNNY     95  52  23 NW18G28   29.54F HX  92
*BEEVILLE      SUNNY     96  46  17 NW21G31   29.57S HX  92
ROCKPORT       SUNNY     97  61  30 NW14      29.53F HX  97
*PORT ARANSAS  MOSUNNY   87  73  62 S8        29.54S HX  95
*PORT LAVACA   SUNNY     93  68  44 NW16      29.54S HX  97
*INGLESIDE     SUNNY     99  58  24 NW28G38   29.53F HX  98
CORPUS CHRISTI MOSUNNY   96  59  29 NW18      29.54F HX  95
CORPUS NAS     MOSUNNY   98  66  34 NW16      29.54F HX 101
*ROBSTOWN      SUNNY     98  46  17 NW17G25   29.55F HX  94
ALICE          SUNNY     98  43  15 NW20G31   29.55F HX  94
KINGSVILLE NAS MOSUNNY   99  55  23 NW23G30   29.55F HX  97
COTULLA        SUNNY     97  35  11 NW15G29   29.60F HX  92
*FAITH RANCH   SUNNY     95  37  13 N15G24    29.62F HX  90
LAREDO         SUNNY     95  46  18 N17G25    29.59F HX  91
$$

TXZ248>255-262200-
DEEP SOUTH TEXAS

CITY           SKY/WX    TMP DP  RH WIND       PRES   REMARKS
BROWNSVILLE    SUNNY    104  58  21 N15G22    29.53S HX 104
PORT ISABEL    SUNNY     95  69  42 NE17G24   29.53S HX 100
*SOUTH PADRE   NOT AVBL
HARLINGEN      SUNNY    103  57  21 N17       29.52F HX 102
*HEBBRONVILLE  SUNNY     93  40  15 N15       29.61F
MCALLEN        SUNNY    104  53  18 N18G25    29.54F HX 102
*WESLACO       SUNNY    101  53  20 N17       29.53S HX  98
FALFURRIAS     SUNNY     97  50  20 N9G24     29.55F HX  94
EDINBURG       SUNNY    102  46  14 NW17G26   29.54F HX  98
*ZAPATA        SUNNY     98  40  13 N12G21    29.57F HX  93
$$

TXZ213>215-236>238-242>244-246-247-251-254-255-262200-
CMAN STATIONS

STATION/POSITION TIME  TEMP    WIND        PRES    WAVE
                       AIR SEA DIR/SP/G            HT/PER
                 (UTC) (F)     (DEG/KT/KT) (MB)    (FT/S)
SABINE PASS      2030   76 78  170/  8/ 16 1002.7
SEA RIM ST PARK  2000   76     160/ 11/ 13 1002.0
NORTH JETTY/GLS  2030      76  160/ 11/ 14 1000.4
EAGLE POINT      2030   79 75  210/ 13/ 17 1000.3
MORGANS POINT    2030   80 75  160/  6/  8 1000.1
MISSION/ARANSAS  2000   89                 1000.0
PORT O`CONNOR    2030   79     170/ 10/ 11 1000.1
PORT ARANSAS     2000   82 80  150/  8/ 10 1000.7
MALAQUITE BEACH  2030   91 79  320/ 17/ 22 1001.1
BAFFIN BAY       2030   90 83  280/ 19/ 27 1000.6
PORT ISABEL      2030   88 78  360/  5/  8 1000.1
$$

GMZ080-GMZ150>470-262200-
OFFSHORE BUOY REPORTS

STATION/POSITION TIME  TEMP    WIND        PRES    WAVE
                       AIR SEA DIR/SP/G            HT/PER
                 (UTC) (F)     (DEG/KT/KT) (MB)    (FT/S)
20 E GALVESTON   1950   76 76  190/ 10/ 12 1001.3    6/ 8
90 E PT ARANSAS  1950   77 76  180/  6/ 10 1001.4    7/ 8
35 NE PT MANSFLD 1950   78     210/  6/  6 1000.2    7/ 8
200 E PT ISABEL  1950   80 79  170/ 17/ 21 1001.1    6/ 7
$$




USA.gov is the U.S. government's official web portal to all federal, state and local government web resources and services.